Location: Newark
(6.9000°N, 10.0000°E)
Time: 01:54:31
(UTC+00:00)

Hubble Space Telescope - Pass Details

Date: 25 October 2019
Orbit: 536 x 540 km, 28.5° (Epoch: 19 November)

Event Time Altitude Azimuth Distance (km) Brightness Sun altitude
Exits shadow 03:44:29 65° 308° (NW) 586 0.6 -20.8°
Maximum altitude 03:44:42 66° 330° (NNW) 578 0.7 -20.8°
Drops below altitude 10° 03:48:46 10° 54° (NE) 1,771 4.0 -19.8°
Sets 03:51:02 0° 57° (ENE) 2,660 5.0 -19.2°
